| time (UTC) | temp C | wind direction | speed KPH | gust KPH | rain 1hr cm | rain 24hr cm | rain mn cm | humidity % | barometer mb |
| 20260504175936 | 23 | 248 | 3.2 | 9.7 | 0.00 | 0.00 | 0.00 | 45 | 1015.4 |
| 20260504174936 | 24 | 180 | 1.6 | 4.8 | 0.00 | 0.00 | 0.00 | 48 | 1015.3 |
| 20260504173916 | 23 | 338 | 1.6 | 3.2 | 0.00 | 0.00 | 0.00 | 48 | 1015.4 |
| 20260504172916 | 23 | 293 | 3.2 | 4.8 | 0.00 | 0.00 | 0.00 | 50 | 1015.6 |
| 20260504171916 | 23 | 293 | 1.6 | 3.2 | 0.00 | 0.00 | 0.00 | 49 | 1015.8 |
| 20260504170916 | 24 | 135 | 1.6 | 4.8 | 0.00 | 0.00 | 0.00 | 49 | 1016.1 |
| 20260504150916 | 20 | 0.0 | 3.2 | 0.00 | 0.00 | 0.00 | 60 | 1016.7 | |
| 20260504140915 | 18 | 158 | 4.8 | 6.4 | 0.00 | 0.00 | 0.00 | 63 | 1017.1 |
| 20260504081917 | 8 | 0.0 | 0.0 | 0.00 | 0.00 | 0.00 | 86 | 1016.1 | |
| 20260504080917 | 8 | 0.0 | 0.0 | 0.00 | 0.00 | 0.00 | 86 | 1016.2 | |
| 20260504045915 | 10 | 0.0 | 0.0 | 0.00 | 0.00 | 0.00 | 82 | 1017.3 | |
| 20260504044915 | 10 | 0.0 | 0.0 | 0.00 | 0.00 | 0.00 | 81 | 1017.3 | |
| 20260504043915 | 10 | 0.0 | 0.0 | 0.00 | 0.00 | 0.00 | 82 | 1017.2 | |
| 20260504042936 | 10 | 0.0 | 0.0 | 0.00 | 0.00 | 0.00 | 81 | 1017.3 | |
| 20260504041917 | 10 | 0.0 | 0.0 | 0.00 | 0.00 | 0.00 | 79 | 1017.4 | |
| 20260504040938 | 10 | 0.0 | 0.0 | 0.00 | 0.00 | 0.00 | 80 | 1017.4 | |
| 20260504035917 | 10 | 0.0 | 0.0 | 0.00 | 0.00 | 0.00 | 77 | 1017.6 | |
| 20260504034917 | 10 | 0.0 | 0.0 | 0.00 | 0.00 | 0.00 | 77 | 1017.7 | |
| 20260504033917 | 11 | 0.0 | 0.0 | 0.00 | 0.00 | 0.00 | 78 | 1017.8 | |
| 20260504032917 | 11 | 0.0 | 0.0 | 0.00 | 0.00 | 0.00 | 76 | 1017.8 | |
| 20260504031937 | 11 | 0.0 | 0.0 | 0.00 | 0.00 | 0.00 | 77 | 1017.8 | |
| 20260504030917 | 11 | 0.0 | 0.0 | 0.00 | 0.00 | 0.00 | 75 | 1017.8 | |
| 20260504025917 | 11 | 0.0 | 0.0 | 0.00 | 0.00 | 0.00 | 76 | 1017.7 | |
| 20260504024917 | 11 | 0.0 | 0.0 | 0.00 | 0.00 | 0.00 | 75 | 1017.7 | |
| 20260504023939 | 11 | 0.0 | 0.0 | 0.00 | 0.00 | 0.00 | 75 | 1017.5 | |
| 20260504022917 | 12 | 0.0 | 0.0 | 0.00 | 0.00 | 0.00 | 74 | 1017.4 | |
| 20260504021917 | 12 | 0.0 | 0.0 | 0.00 | 0.00 | 0.00 | 73 | 1017.4 | |
| 20260504020919 | 12 | 0.0 | 0.0 | 0.00 | 0.00 | 0.00 | 75 | 1017.2 | |
| 20260504015917 | 12 | 0.0 | 0.0 | 0.00 | 0.00 | 0.00 | 75 | 1017.1 | |
| 20260504014917 | 12 | 0.0 | 0.0 | 0.00 | 0.00 | 0.00 | 75 | 1017.1 | |
| 20260504013917 | 12 | 0.0 | 0.0 | 0.00 | 0.00 | 0.00 | 73 | 1017.0 | |
| 20260504012917 | 13 | 0.0 | 0.0 | 0.00 | 0.00 | 0.00 | 70 | 1016.9 | |
| 20260504011937 | 13 | 0.0 | 0.0 | 0.00 | 0.00 | 0.00 | 71 | 1016.8 | |
| 20260504010917 | 13 | 0.0 | 0.0 | 0.00 | 0.00 | 0.00 | 69 | 1016.8 | |
| 20260504005917 | 14 | 0.0 | 0.0 | 0.00 | 0.00 | 0.00 | 67 | 1016.7 | |
| 20260504004917 | 15 | 0.0 | 0.0 | 0.00 | 0.00 | 0.00 | 67 | 1016.6 | |
| 20260504003937 | 15 | 0.0 | 0.0 | 0.00 | 0.00 | 0.00 | 64 | 1016.5 | |
| 20260504002917 | 16 | 0.0 | 0.0 | 0.00 | 0.00 | 0.00 | 63 | 1016.5 | |
| 20260504001959 | 16 | 0.0 | 0.0 | 0.00 | 0.00 | 0.00 | 61 | 1016.5 | |
| 20260504000919 | 17 | 0.0 | 0.0 | 0.00 | 0.00 | 0.00 | 60 | 1016.5 | |
| 20260503235917 | 17 | 0.0 | 0.0 | 0.00 | 0.00 | 0.00 | 56 | 1016.5 | |
| 20260503234917 | 17 | 0.0 | 0.0 | 0.00 | 0.00 | 0.00 | 51 | 1016.4 | |
| 20260503233917 | 18 | 0.0 | 0.0 | 0.00 | 0.00 | 0.00 | 49 | 1016.4 | |
| 20260503232917 | 18 | 0.0 | 0.0 | 0.00 | 0.00 | 0.00 | 48 | 1016.3 | |
| 20260503231918 | 18 | 0.0 | 0.0 | 0.00 | 0.00 | 0.00 | 45 | 1016.2 | |
| 20260503230917 | 18 | 0.0 | 1.6 | 0.00 | 0.00 | 0.00 | 46 | 1016.4 | |
| 20260503225916 | 18 | 0.0 | 3.2 | 0.00 | 0.00 | 0.00 | 45 | 1016.5 | |
| 20260503224917 | 18 | 0.0 | 3.2 | 0.00 | 0.00 | 0.00 | 46 | 1016.6 | |
| 20260503223917 | 18 | 0.0 | 1.6 | 0.00 | 0.00 | 0.00 | 47 | 1016.6 | |
| 20260503222957 | 18 | 0.0 | 1.6 | 0.00 | 0.00 | 0.00 | 46 | 1016.7 | |
| 20260503221916 | 18 | 338 | 1.6 | 4.8 | 0.00 | 0.00 | 0.00 | 46 | 1016.8 |
| 20260503220917 | 18 | 0.0 | 1.6 | 0.00 | 0.00 | 0.00 | 45 | 1016.9 | |
| 20260503215917 | 19 | 0.0 | 1.6 | 0.00 | 0.00 | 0.00 | 45 | 1017.0 | |
| 20260503214937 | 18 | 0.0 | 1.6 | 0.00 | 0.00 | 0.00 | 44 | 1017.0 | |
| 20260503213916 | 18 | 0.0 | 1.6 | 0.00 | 0.00 | 0.00 | 46 | 1017.1 | |
| 20260503212937 | 18 | 0 | 1.6 | 1.6 | 0.00 | 0.00 | 0.00 | 46 | 1017.2 |
| 20260503211917 | 18 | 338 | 1.6 | 4.8 | 0.00 | 0.00 | 0.00 | 43 | 1017.3 |
| 20260503210937 | 18 | 270 | 1.6 | 4.8 | 0.00 | 0.00 | 0.00 | 42 | 1017.4 |
| 20260503205916 | 18 | 315 | 3.2 | 6.4 | 0.00 | 0.00 | 0.00 | 43 | 1017.5 |
| 20260503204916 | 18 | 23 | 1.6 | 3.2 | 0.00 | 0.00 | 0.00 | 45 | 1017.6 |
| 20260503203917 | 18 | 293 | 1.6 | 1.6 | 0.00 | 0.00 | 0.00 | 45 | 1017.8 |
| 20260503202916 | 18 | 135 | 1.6 | 3.2 | 0.00 | 0.00 | 0.00 | 47 | 1017.9 |
| 20260503201916 | 18 | 0.0 | 1.6 | 0.00 | 0.00 | 0.00 | 48 | 1018.1 | |
| 20260503200917 | 18 | 338 | 4.8 | 8.0 | 0.00 | 0.00 | 0.00 | 46 | 1018.3 |
| 20260503195916 | 18 | 248 | 1.6 | 3.2 | 0.00 | 0.00 | 0.00 | 45 | 1018.5 |
| 20260503194937 | 18 | 0.0 | 3.2 | 0.00 | 0.00 | 0.00 | 47 | 1018.7 | |
| 20260503193916 | 18 | 270 | 1.6 | 3.2 | 0.00 | 0.00 | 0.00 | 49 | 1018.9 |
| 20260503192917 | 18 | 0.0 | 1.6 | 0.00 | 0.00 | 0.00 | 48 | 1019.1 | |
| 20260503191918 | 18 | 293 | 1.6 | 3.2 | 0.00 | 0.00 | 0.00 | 49 | 1019.2 |
| 20260503190916 | 18 | 315 | 1.6 | 4.8 | 0.00 | 0.00 | 0.00 | 45 | 1019.4 |
| 20260503185916 | 18 | 0.0 | 1.6 | 0.00 | 0.00 | 0.00 | 48 | 1019.6 | |
| 20260503184916 | 18 | 0.0 | 0.0 | 0.00 | 0.00 | 0.00 | 48 | 1019.8 | |
| 20260503183916 | 18 | 0.0 | 1.6 | 0.00 | 0.00 | 0.00 | 48 | 1019.8 | |
| 20260503182916 | 18 | 0.0 | 3.2 | 0.00 | 0.00 | 0.00 | 45 | 1020.0 | |
| 20260503181916 | 18 | 270 | 1.6 | 4.8 | 0.00 | 0.00 | 0.00 | 46 | 1020.1 |
| 20260503180916 | 18 | 293 | 1.6 | 4.8 | 0.00 | 0.00 | 0.00 | 46 | 1020.0 |